Wind_Speed
14 14 14 15 15 15 16 14 13 14 14 13 13 13 12 12 11 9 9 9 10 10 11 12 13 14 16 18 19 21 22 24 25 26 27 26 26 25 25 26 26 27 28 29 30 32 33 34 35 36 37 39 39 40 40 40 40 38 37 35 35 34 34 33 33 33 32 32 32 33 32 32 32 32
14 14 15 15 15 16 16 15 12 12 13 12 12 12 12 12 11 10 9 9 9 10 11 13 15 17 18 20 21 22 23 25 27 28 29 29 28 28 28 28 28 29 30 31 32 34 35 35 36 37 38 39 40 40 41 41 41 40 39 38 37 36 36 36 35 35 34 34 34 34 34 34 34 33
14 15 16 16 17 16 16 15 12 11 11 11 11 12 12 12 12 12 11 9 10 11 13 15 18 19 21 22 23 23 24 25 27 28 29 30 31 31 31 32 32 33 33 34 34 35 36 36 37 38 40 40 41 41 41 41 41 41 40 40 40 40 39 38 37 37 37 36 35 35 36 36 36 36
14 15 16 17 18 18 17 16 15 13 13 12 11 11 12 13 13 13 13 12 12 13 15 17 19 21 22 23 24 24 25 26 27 29 30 32 33 34 34 35 36 37 37 37 37 37 37 37 38 39 40 41 42 42 43 43 42 41 41 41 41 41 41 41 40 39 39 39 38 37 37 37 38 38
15 16 17 18 18 19 19 18 16 16 16 16 14 13 13 13 14 14 15 15 15 15 16 18 19 21 23 24 25 25 26 28 29 30 32 33 35 36 37 37 38 39 39 40 40 40 40 40 40 40 40 41 42 43 43 43 43 42 42 43 43 42 42 42 42 42 41 41 41 40 40 39 39 40
17 18 19 19 19 20 21 21 18 16 18 18 17 16 15 15 15 15 16 17 17 17 17 18 20 22 24 25 26 27 28 29 31 32 33 34 36 37 38 39 39 40 40 41 42 42 42 42 42 42 42 43 43 43 44 44 44 44 44 45 45 44 44 44 44 44 44 44 44 44 43 43 42 42
18 20 21 21 21 22 23 23 21 17 17 18 18 18 18 18 18 17 17 17 19 19 19 20 21 23 25 26 27 29 30 31 32 34 35 36 37 38 39 40 40 40 41 41 42 43 43 43 43 44 44 45 45 45 45 45 46 46 47 47 47 47 47 47 47 47 46 45 46 46 46 46 46 46
19 21 21 21 22 24 25 23 20 18 17 17 18 19 18 18 19 18 18 17 19 21 22 23 23 24 26 28 29 30 32 33 34 35 37 38 39 40 40 41 42 42 43 43 44 44 44 43 43 43 44 45 46 46 46 46 46 47 47 48 48 48 49 49 50 49 49 48 47 47 47 48 48 49
20 21 22 22 23 24 23 20 19 18 18 19 20 20 19 18 19 19 18 18 19 21 23 25 26 27 28 30 31 32 33 34 35 36 38 39 40 41 42 43 44 45 45 45 46 46 46 45 45 44 44 44 45 46 46 46 46 46 47 48 48 49 49 50 50 51 51 50 49 48 48 48 48 49
20 21 22 23 23 22 21 20 21 21 21 22 23 23 21 19 19 19 19 18 19 21 23 26 27 29 31 32 34 34 35 36 37 38 39 40 40 42 43 45 46 47 48 48 48 49 49 48 47 46 45 44 44 44 44 44 45 45 45 46 47 48 48 49 50 51 51 52 52 51 50 50 49 49
20 21 22 23 22 21 21 21 21 22 23 23 24 24 23 22 20 20 20 19 19 21 24 26 28 30 33 34 35 36 36 37 38 40 40 41 41 42 44 46 49 49 50 49 49 49 49 48 46 45 45 44 44 43 43 43 43 43 44 44 44 45 45 46 47 49 50 51 52 52 52 51 50 50
20 20 21 22 22 22 22 22 22 23 23 22 23 24 25 24 22 21 20 20 20 22 24 27 29 31 34 35 35 36 37 38 38 39 40 41 42 43 45 48 50 51 50 49 47 47 47 46 44 44 44 44 44 43 43 43 43 43 44 43 43 43 43 44 44 45 46 48 50 51 52 52 51 50
21 21 21 23 25 24 23 23 23 23 22 21 22 24 25 24 23 21 21 21 22 23 25 28 30 32 34 35 35 36 36 37 38 38 39 41 42 44 46 48 50 51 50 47 45 45 45 45 43 43 43 43 43 44 44 44 44 44 44 45 44 44 43 43 43 43 44 45 46 48 49 51 52 52
22 22 23 26 26 24 23 25 25 24 22 21 22 23 24 24 24 23 23 23 24 25 27 29 31 33 34 35 35 36 36 36 37 38 40 42 44 46 47 49 50 50 49 46 43 43 45 44 43 42 42 42 42 42 42 43 43 43 43 44 44 45 45 45 45 45 44 44 44 45 46 48 50 51
24 24 26 28 28 26 25 26 26 24 22 23 25 25 24 25 25 25 25 26 26 28 29 31 32 33 34 34 34 35 35 36 38 40 42 44 46 47 48 49 49 48 47 45 43 42 43 43 42 41 41 41 41 41 41 41 41 42 42 42 42 43 44 45 45 46 46 46 45 45 45 46 47 49
26 26 27 29 30 30 28 28 28 24 24 28 31 29 26 26 27 27 28 28 29 30 31 32 33 34 34 34 34 34 35 36 38 41 43 45 47 48 49 48 47 46 44 43 41 40 41 41 40 40 41 41 40 41 41 41 42 42 42 42 42 42 42 43 44 44 45 46 46 47 47 47 47 47
28 28 28 30 32 32 32 32 29 25 28 34 34 30 28 28 29 30 30 31 31 32 32 33 34 34 33 33 33 33 35 37 39 42 44 46 47 48 48 46 45 43 42 40 38 39 40 41 41 42 42 42 42 42 43 43 43 43 43 43 43 42 42 42 42 43 43 44 44 46 47 48 49 49
30 30 30 31 33 34 36 35 31 28 31 35 35 35 34 32 31 32 33 33 33 33 34 34 34 33 33 32 32 34 35 37 40 42 45 47 48 47 45 43 42 41 39 38 37 39 41 42 42 43 43 44 44 45 45 46 46 45 45 44 43 43 43 42 41 41 42 42 42 43 44 46 48 50
33 32 31 33 35 37 39 38 36 35 36 38 41 43 41 37 35 35 35 35 35 35 35 34 34 33 32 31 32 34 36 38 40 42 45 46 47 45 42 40 39 39 38 38 38 40 41 42 43 43 44 45 46 47 48 48 48 47 46 45 43 42 42 41 40 40 40 40 40 40 41 42 44 46
35 34 33 34 36 38 41 40 39 39 40 43 46 44 40 39 39 39 38 38 36 36 35 34 33 32 31 31 32 34 36 38 40 42 44 45 45 42 40 38 37 37 37 38 39 41 42 43 44 44 45 46 47 48 49 49 49 48 45 43 41 40 39 38 37 37 37 38 38 38 38 39 40 41
38 35 35 36 37 39 42 42 40 41 43 44 44 41 40 41 42 41 40 38 37 36 35 34 33 32 31 31 32 34 35 37 40 42 44 44 43 41 38 35 35 37 38 39 40 41 43 44 44 45 46 47 48 49 50 49 48 46 42 39 37 36 34 33 32 32 33 34 34 35 35 36 37 38
40 37 37 38 38 40 44 44 43 44 45 45 45 45 44 42 42 42 40 38 36 36 35 34 33 31 31 31 32 34 35 37 39 42 43 42 41 39 36 34 35 37 38 40 41 42 43 44 45 45 46 47 49 50 50 48 46 43 40 36 34 32 30 28 28 28 28 29 30 31 32 33 34 35
42 40 40 41 41 43 46 47 46 46 47 48 49 48 46 43 42 42 40 37 37 37 36 34 32 31 31 31 32 33 35 37 39 41 41 40 38 36 34 33 35 37 39 40 41 43 44 44 45 45 46 47 47 47 46 45 44 41 39 36 33 31 28 26 25 25 26 26 27 28 29 30 31 32
45 43 43 44 44 46 48 49 49 48 49 51 52 52 49 45 42 41 40 38 39 39 36 33 32 31 31 31 32 33 34 36 38 39 39 37 36 34 33 33 35 37 38 40 41 43 44 44 45 44 45 45 44 42 40 40 40 39 38 36 33 31 29 27 26 26 26 26 27 27 28 29 30 31
48 46 47 47 47 49 50 50 50 51 52 54 54 54 52 47 43 42 41 40 40 40 36 33 32 31 31 31 32 33 34 35 37 37 36 35 33 32 32 34 35 37 38 40 41 42 43 44 44 43 43 43 41 39 36 36 36 37 36 34 33 32 31 30 29 28 28 28 28 28 29 29 30 31
50 49 50 50 51 52 52 51 52 53 53 54 55 55 53 49 44 43 42 42 42 40 36 33 32 31 31 31 32 32 33 34 35 35 34 32 30 31 32 34 35 36 38 40 41 42 43 43 42 42 41 40 38 35 34 33 33 34 34 34 33 33 32 32 31 31 31 31 30 30 30 31 32 32
53 53 54 54 54 55 56 56 57 56 53 53 56 56 53 49 46 44 43 42 42 40 36 34 33 31 31 31 31 31 32 33 34 33 31 29 29 30 32 34 35 36 38 40 41 41 41 41 41 41 40 39 36 33 32 32 31 32 33 33 34 34 34 34 33 33 34 34 33 32 33 33 34 34
57 57 58 58 57 58 59 60 59 56 53 56 58 55 52 49 46 44 42 42 42 40 37 34 33 31 31 31 31 31 32 32 32 31 29 27 28 29 31 33 34 36 38 39 40 40 40 40 40 40 40 38 35 33 32 31 31 31 31 31 32 34 35 35 35 35 36 36 36 35 35 35 36 36
62 62 63 63 62 62 61 59 57 56 58 60 57 53 50 47 44 43 41 41 41 40 37 34 33 32 31 31 31 31 31 31 31 29 27 26 27 29 31 32 33 35 37 39 38 38 38 39 39 39 39 37 36 34 32 32 31 32 32 31 31 32 33 35 36 37 37 38 38 38 38 38 38 39
64 65 67 68 67 64 62 59 58 60 62 59 54 50 47 43 42 41 40 39 41 40 37 35 33 32 31 31 31 31 31 30 29 27 26 26 27 29 31 32 33 35 37 37 37 37 38 38 38 38 37 37 35 34 33 32 32 32 32 32 32 31 31 31 33 35 37 38 38 38 40 40 41 42
64 66 69 70 68 66 64 62 61 64 64 59 54 51 46 43 43 41 38 39 40 39 37 35 33 32 32 31 31 31 30 29 27 26 25 26 27 29 30 31 33 35 36 36 35 36 37 37 37 36 36 36 35 34 33 33 32 32 32 33 34 33 31 30 29 31 33 35 36 37 38 40 41 43
66 67 70 71 68 66 64 62 64 67 66 59 53 50 46 45 44 41 37 38 39 38 37 35 33 32 32 32 31 31 29 28 26 25 24 25 27 28 29 31 33 34 34 34 34 35 36 36 36 36 35 35 35 34 34 33 33 33 33 34 35 35 34 32 30 29 30 31 31 32 33 36 39 41
66 66 69 69 67 64 63 63 66 70 67 57 48 44 42 40 39 37 36 37 38 38 36 34 33 32 32 32 31 30 28 27 25 23 24 25 27 28 29 30 31 32 32 33 34 35 36 36 36 36 35 34 34 34 34 34 34 34 34 35 36 36 35 34 33 31 30 29 27 26 26 29 33 37
56 57 59 61 60 60 60 61 65 68 66 57 48 43 39 37 36 35 35 36 37 37 36 34 33 32 32 32 31 30 28 26 24 23 23 24 26 27 28 29 30 30 30 31 32 33 35 36 36 36 35 34 34 34 34 34 34 35 35 36 37 37 36 35 34 33 32 31 28 25 23 24 27 30
56 54 53 53 55 56 57 59 62 65 63 55 46 41 37 35 34 33 34 35 36 36 35 34 34 33 32 32 31 29 27 25 23 22 23 24 25 26 27 27 28 28 28 29 30 32 34 35 36 37 36 35 35 35 35 35 35 35 35 36 37 37 37 36 34 33 32 31 29 28 25 24 25 27
59 57 57 56 56 56 56 57 61 64 59 50 43 39 36 33 32 32 33 34 35 35 35 35 34 33 32 32 31 29 26 25 23 22 22 24 25 26 26 26 26 26 26 28 29 31 32 34 36 37 36 36 35 35 35 36 36 37 36 36 36 37 37 36 34 32 31 29 28 28 26 24 24 26
63 62 61 58 55 54 54 56 61 63 57 47 39 36 33 30 29 30 31 34 34 35 35 35 34 33 33 32 31 28 26 25 23 22 22 24 25 25 25 24 24 24 25 27 28 30 32 33 35 36 36 36 36 36 35 36 37 37 37 37 37 37 37 36 35 32 30 28 27 27 27 25 25 26
63 61 58 58 56 54 55 57 57 52 45 38 33 30 28 27 27 28 31 33 34 35 35 35 34 34 34 33 31 28 26 25 23 21 22 24 24 24 24 23 23 23 25 26 27 29 31 33 34 35 36 37 37 36 35 35 36 37 38 38 38 38 37 37 37 34 31 28 27 27 28 27 27 27
61 60 59 58 55 54 57 54 44 36 31 29 27 25 24 24 25 28 31 32 34 35 35 35 35 35 35 33 30 28 26 25 23 21 22 23 24 24 23 22 22 23 25 26 27 29 31 32 34 35 36 37 37 37 36 35 35 36 38 38 39 39 39 38 38 36 33 30 28 27 28 28 29 30
62 60 57 52 51 55 56 49 41 38 38 32 25 21 21 22 25 28 30 32 34 35 35 35 35 36 35 33 30 28 26 24 22 22 23 23 23 23 23 22 22 24 25 26 27 29 31 32 34 35 36 37 38 38 37 35 34 35 36 38 39 40 41 41 41 39 36 33 30 29 29 29 30 31
53 52 52 54 57 57 51 44 41 43 42 33 24 21 22 23 26 29 31 33 35 35 35 35 36 36 35 32 30 28 27 24 23 22 23 23 23 23 22 22 23 24 26 27 28 29 31 32 34 35 36 37 38 38 38 36 35 34 36 37 38 40 41 42 43 42 40 37 34 32 31 31 31 33
53 56 59 59 56 51 46 42 40 38 34 28 23 22 22 24 27 29 31 34 35 35 35 36 36 36 34 32 30 28 27 24 23 23 23 23 23 23 22 23 23 25 26 28 29 30 31 32 34 35 35 36 38 38 38 37 36 35 35 36 38 39 40 42 43 44 43 41 39 37 36 36 37 38
59 59 54 48 44 42 41 38 35 32 29 25 23 22 23 25 28 30 32 35 35 35 35 36 36 35 34 32 30 29 27 25 23 23 24 24 23 23 23 23 24 25 27 28 29 30 31 32 34 35 35 36 37 38 38 38 37 36 35 36 36 38 39 41 42 44 45 44 43 42 42 43 44 45
55 47 40 37 37 36 34 32 31 29 27 25 23 23 24 27 29 31 34 35 35 35 35 36 36 35 33 32 30 29 27 25 24 24 24 24 24 24 23 24 25 26 28 29 30 30 31 32 33 34 35 36 37 38 38 38 38 37 36 36 36 37 38 39 40 42 43 44 43 42 43 44 46 48
38 33 30 30 30 30 29 29 29 28 26 24 23 24 26 28 30 32 34 34 35 35 35 36 37 35 33 32 31 29 28 26 25 24 25 25 25 25 24 25 26 27 29 30 31 31 31 32 33 34 35 36 36 37 37 38 38 38 37 36 36 36 37 38 39 40 41 42 42 42 42 43 45 47
Wind_Direction
343 347 350 353 356 0 3 3 359 348 343 345 343 338 335 331 331 335 334 329 330 335 334 333 333 331 332 332 330 329 327 326 324 322 320 318 315 311 308 304 300 297 295 293 290 288 285 283 282 281 280 279 279 279 278 276 274 272 270 269 267 266 264 263 263 262 261 259 258 257 256 254 252 251
337 342 344 345 346 351 359 4 360 349 348 351 348 345 342 340 340 344 344 337 334 338 338 337 338 337 336 334 331 328 325 323 322 321 320 317 314 311 307 304 302 300 299 296 294 291 289 287 285 283 282 280 279 279 279 279 277 275 273 271 269 267 264 263 261 260 260 259 257 256 256 254 252 250
331 337 338 338 338 340 347 356 355 348 348 351 348 345 343 341 340 339 338 336 333 338 342 342 341 338 335 332 329 326 322 319 318 317 315 313 311 309 307 306 305 304 303 300 297 295 293 292 290 288 286 283 281 279 277 277 277 277 276 274 271 268 265 263 260 258 257 256 256 255 254 253 252 250
324 331 333 333 335 335 338 346 351 348 344 344 344 344 343 340 338 334 331 332 334 338 342 341 338 335 331 329 326 323 318 315 314 312 311 310 309 308 308 308 308 307 305 303 301 299 297 295 293 291 289 287 285 282 279 276 275 275 276 275 273 270 267 264 261 258 255 253 252 252 251 250 250 249
319 326 329 330 332 333 333 335 341 343 339 338 338 339 340 338 333 329 326 328 330 334 337 337 334 329 326 324 322 318 314 311 310 310 310 310 309 308 308 308 308 307 306 304 303 301 299 297 295 293 291 289 287 285 283 280 276 274 274 274 272 271 269 266 263 260 257 254 252 250 249 248 247 247
317 322 324 325 327 329 328 325 327 332 332 332 333 333 334 331 326 323 321 322 324 327 330 330 328 323 320 319 316 313 310 309 309 309 309 309 308 308 308 307 307 305 304 303 301 300 299 297 296 294 293 290 288 286 284 282 279 276 273 272 272 271 270 269 267 264 260 258 255 253 250 248 247 246
314 316 318 321 324 325 323 317 315 318 323 325 327 328 327 324 319 318 317 317 318 321 323 323 321 318 316 315 313 310 309 309 310 310 310 310 309 309 308 307 306 304 303 301 300 298 298 297 296 294 293 291 289 287 284 282 280 279 276 275 274 273 272 271 270 268 265 262 259 257 254 251 249 247
312 312 312 314 318 321 322 317 312 311 314 317 318 319 320 317 313 311 313 314 315 316 318 320 319 317 315 312 310 308 308 309 310 310 310 310 309 309 309 308 306 305 304 303 302 300 299 298 296 295 293 292 290 289 287 285 282 280 279 277 276 275 274 273 272 271 269 266 263 261 259 256 253 250
306 309 308 309 314 318 320 319 316 312 310 310 310 312 313 312 307 305 306 309 311 312 313 316 318 317 313 310 307 307 308 309 310 309 309 309 309 310 310 309 308 307 307 306 305 304 303 302 300 298 296 293 291 290 288 286 284 282 280 278 277 275 274 273 272 272 270 269 266 264 262 260 258 255
297 302 304 306 312 316 316 316 315 312 308 306 305 305 308 309 304 300 301 304 307 310 310 311 314 313 310 307 307 309 310 311 311 310 309 310 310 310 310 310 309 309 309 308 307 306 306 305 304 302 299 296 294 292 290 287 285 283 281 279 278 276 274 273 272 271 271 270 269 267 264 261 259 258
291 299 304 306 309 312 312 313 312 311 309 305 301 300 303 306 302 298 299 304 307 308 308 308 308 307 306 306 308 311 312 312 312 311 311 311 311 311 311 311 310 310 310 310 310 309 308 307 306 304 302 300 297 295 293 290 287 285 283 281 280 278 276 275 273 272 271 270 269 268 267 264 261 258
288 297 304 306 306 306 306 309 310 310 310 306 301 299 301 301 299 296 298 303 307 307 305 303 302 302 303 306 309 312 313 312 312 312 312 312 312 313 313 312 312 313 313 314 314 312 310 309 307 305 302 300 299 297 294 291 289 287 285 283 281 279 278 276 275 273 271 269 268 267 267 266 265 262
287 295 301 302 303 303 302 306 309 308 309 310 305 301 300 298 296 295 298 303 305 304 301 299 299 300 302 305 310 311 312 311 311 312 313 314 314 314 314 315 315 315 316 316 316 313 310 309 308 305 303 301 299 297 295 292 290 288 286 284 282 280 278 276 275 273 271 269 268 267 265 265 264 264
287 292 297 300 302 304 304 308 311 307 305 309 306 300 298 297 297 298 301 303 302 301 299 298 298 300 303 307 310 310 310 311 313 315 316 316 316 316 316 317 317 317 317 317 317 313 309 309 310 307 305 304 303 300 298 296 293 291 288 285 283 281 278 276 274 272 271 269 267 266 265 263 262 262
286 291 295 296 301 307 309 311 312 305 301 307 308 302 297 297 299 300 301 301 299 298 298 298 299 302 305 308 310 310 311 314 316 317 318 318 318 318 318 318 318 317 317 317 317 314 310 311 313 311 309 309 307 304 302 300 298 295 292 289 286 283 280 277 275 272 270 269 267 265 264 263 262 261
285 289 293 295 301 307 310 313 311 304 303 311 313 308 302 300 300 300 300 298 296 296 298 299 301 304 306 308 310 312 314 317 318 319 319 319 320 319 319 319 318 317 317 318 318 315 313 314 316 314 313 312 309 307 305 303 301 298 295 292 288 284 281 279 276 274 272 269 267 265 263 262 261 260
285 289 292 296 300 304 308 313 312 306 308 315 315 310 307 303 300 299 298 296 295 297 299 300 303 305 306 308 311 315 317 319 320 320 320 320 321 321 321 320 318 317 317 319 319 317 316 317 317 315 314 313 312 311 309 307 305 301 298 294 289 286 282 279 276 275 273 271 269 267 264 262 261 260
285 289 293 296 299 301 304 308 309 308 312 317 316 312 310 306 303 301 299 296 296 297 298 301 305 306 307 310 314 317 319 319 320 321 321 322 322 322 321 319 318 318 319 321 321 319 317 318 317 316 316 316 315 314 313 311 308 305 301 296 291 287 284 280 277 274 272 271 271 269 266 263 261 260
285 289 293 295 296 298 301 303 305 306 310 314 315 311 307 306 306 305 301 297 295 295 297 301 305 306 308 313 317 319 319 320 321 322 322 323 322 321 320 319 319 319 321 322 321 320 318 319 319 318 318 318 316 315 314 312 309 307 303 299 295 290 286 282 279 276 273 271 270 270 268 266 263 261
285 288 291 293 293 295 299 301 304 307 309 314 316 310 304 305 306 305 303 299 294 293 298 303 305 306 309 315 318 318 319 320 322 323 323 323 322 321 321 321 320 320 322 323 322 321 321 321 321 321 320 319 317 316 314 312 309 307 305 303 299 295 290 286 282 278 275 272 270 270 270 269 266 264
285 286 287 288 289 291 294 297 302 305 307 313 316 312 306 304 304 304 302 297 293 295 300 304 305 307 311 315 317 318 319 321 323 324 324 323 322 322 323 322 321 321 323 324 323 323 323 322 322 322 321 320 318 316 314 312 310 309 308 306 303 300 296 291 287 283 279 276 274 272 270 269 269 267
284 284 284 285 285 286 289 294 299 302 303 306 310 311 309 304 302 303 301 296 294 297 301 304 305 308 312 315 316 317 320 322 324 324 324 322 322 323 324 323 321 322 324 325 325 324 324 323 323 322 322 321 319 317 315 313 311 310 309 308 306 303 301 298 295 290 286 282 280 277 275 272 270 269
281 281 281 282 283 285 288 293 298 299 300 302 304 307 309 305 301 302 300 296 296 298 301 304 305 307 311 314 315 318 320 323 324 323 322 322 323 324 324 323 323 324 326 327 326 325 324 323 323 322 322 321 320 318 316 314 313 312 311 309 308 307 306 304 301 297 293 289 285 283 280 277 274 272
278 278 280 280 282 285 288 292 295 295 295 298 300 303 306 304 301 302 300 296 296 299 301 303 304 306 310 312 314 317 320 322 323 322 321 321 324 325 323 323 324 326 327 327 326 325 324 323 323 323 322 322 320 318 316 314 313 313 312 311 310 308 307 306 304 300 296 292 288 285 281 279 276 273
275 276 278 278 280 282 285 287 290 290 291 294 296 298 302 301 299 300 299 295 296 298 299 301 302 304 308 311 313 317 320 321 321 320 320 322 324 324 323 324 326 327 328 328 326 325 324 323 323 323 323 323 322 320 318 315 315 315 314 313 311 308 306 305 302 299 296 292 289 286 282 279 277 274
274 274 275 275 276 278 280 281 283 283 286 290 291 294 298 298 296 297 297 294 294 297 298 299 301 304 308 310 312 316 319 320 320 319 319 322 324 323 322 325 327 328 328 328 327 326 325 324 323 323 324 324 323 322 321 319 317 317 316 313 311 308 305 302 300 297 295 292 289 287 284 280 278 275
272 272 271 271 273 274 275 277 276 276 281 287 288 290 295 296 294 294 295 293 294 295 297 297 299 303 307 308 311 316 318 318 318 317 319 322 322 321 322 325 328 328 328 328 327 326 325 324 324 324 325 326 324 322 323 323 321 318 316 313 310 307 303 300 297 295 292 290 288 286 283 280 278 275
270 270 270 271 271 271 274 276 274 273 279 285 286 288 292 293 293 294 293 293 293 294 295 295 298 302 305 307 311 314 315 316 316 317 319 321 321 320 323 326 328 328 328 328 328 327 326 325 325 325 327 328 327 324 324 324 323 322 321 318 312 307 302 298 295 291 289 287 285 284 282 279 277 276
267 268 269 270 269 270 272 273 272 272 277 281 283 286 289 290 292 294 293 292 293 293 292 293 296 300 303 305 309 311 312 313 314 316 318 319 319 320 323 326 328 329 329 329 328 328 327 327 327 326 327 330 331 329 326 324 323 324 325 324 320 313 306 300 295 290 285 283 282 281 280 278 277 276
265 266 266 267 267 267 268 268 269 271 274 277 281 285 286 285 290 294 292 291 291 291 290 292 294 298 301 304 306 308 308 310 312 315 317 317 318 321 324 326 328 329 330 330 330 330 329 328 328 328 328 331 333 332 329 326 324 325 326 328 328 323 316 308 301 294 288 283 280 278 277 277 276 275
265 264 263 264 265 266 267 268 270 271 272 276 282 284 280 281 289 293 290 289 290 288 288 290 293 296 299 301 302 304 305 308 311 314 315 315 317 321 324 327 328 330 330 331 331 331 331 330 330 329 330 332 334 334 332 328 326 327 329 332 334 332 326 319 312 304 297 290 284 280 277 276 275 275
264 264 265 266 267 266 266 268 270 269 270 275 281 283 280 280 287 289 287 286 287 286 285 288 292 295 297 298 299 300 302 306 309 312 312 313 317 321 324 326 329 330 331 332 333 333 332 332 332 332 332 333 334 335 334 330 329 331 333 336 338 337 332 327 321 315 310 304 297 289 281 277 276 275
262 266 269 270 271 269 267 267 268 268 269 271 278 284 283 280 282 284 283 284 284 283 284 287 290 293 295 296 296 298 300 304 307 309 310 312 317 320 323 326 329 331 332 333 334 334 334 334 335 335 334 334 334 335 335 334 334 335 336 338 341 341 338 333 328 324 321 318 314 306 295 285 279 276
265 270 273 273 274 273 271 268 267 267 265 264 270 279 279 276 278 280 280 281 281 281 283 286 288 291 293 294 294 295 298 302 305 306 308 312 316 319 321 325 329 331 333 335 336 336 335 336 337 337 337 335 334 334 335 336 337 338 339 340 343 344 342 337 332 329 327 326 325 322 314 303 293 286
271 275 279 279 280 279 276 273 271 269 263 259 264 274 274 272 275 276 276 278 279 280 282 284 286 288 291 291 292 293 296 300 303 304 307 312 314 316 320 325 329 332 335 338 338 338 338 338 339 339 338 337 334 334 335 337 339 341 342 342 343 344 344 340 335 331 329 328 327 325 321 316 308 300
271 271 274 278 281 281 278 275 275 270 261 255 260 268 268 268 271 271 274 277 278 278 281 283 284 287 289 289 289 291 294 299 300 302 307 310 312 314 318 324 328 331 336 339 340 339 340 341 342 341 340 338 336 335 336 338 340 342 343 342 342 343 343 342 338 333 330 328 325 323 320 317 310 304
270 270 272 276 280 281 280 279 274 267 257 251 255 260 261 263 266 268 272 276 276 277 279 281 283 286 287 286 287 289 292 296 298 301 306 308 309 312 317 322 326 330 335 339 340 340 341 342 343 343 341 340 338 337 337 338 339 341 343 343 342 341 341 342 341 337 332 329 326 323 320 317 312 305
267 268 272 277 279 281 283 281 271 259 250 246 248 252 255 260 264 267 271 274 274 275 278 280 282 284 284 284 285 287 290 293 295 299 303 305 306 310 315 320 324 328 332 336 338 340 341 342 343 343 342 342 341 340 339 339 339 341 342 343 342 340 340 342 342 340 336 332 329 325 322 319 315 309
264 267 272 275 277 281 285 277 261 250 251 249 246 251 257 260 263 268 271 272 273 274 276 279 281 282 282 282 283 285 288 290 293 297 300 302 304 308 312 317 320 324 328 332 335 338 340 341 342 343 343 343 343 343 342 341 340 341 342 342 342 340 340 341 343 343 340 335 331 328 324 320 316 311
264 267 269 271 276 283 282 268 252 256 264 260 253 258 262 260 263 268 270 271 271 273 275 277 279 280 281 281 282 284 285 287 290 294 296 298 301 305 309 313 316 320 324 327 331 335 337 339 341 341 342 343 344 344 344 343 342 342 341 342 342 341 340 341 343 344 342 338 333 329 325 321 317 313
260 262 266 272 278 279 270 256 253 261 262 255 253 261 259 258 264 268 268 269 270 271 274 276 277 279 279 279 280 282 283 285 288 291 293 296 299 302 305 308 312 316 319 322 326 331 334 337 338 340 341 342 343 345 346 345 344 343 341 342 343 343 342 341 341 342 343 341 336 331 328 324 322 319
259 266 273 276 274 266 255 253 257 257 250 247 255 258 255 258 264 266 266 268 268 270 272 275 276 278 278 278 279 280 281 283 285 287 290 293 296 298 300 304 308 312 315 318 322 328 332 334 335 337 339 341 342 345 347 347 346 344 342 343 344 344 343 342 341 341 342 342 339 336 333 331 328 326
268 273 274 270 261 253 251 252 251 246 245 252 256 253 254 260 263 263 265 266 266 268 271 273 276 277 277 277 278 279 280 282 283 284 287 291 293 294 296 300 304 307 310 314 319 324 328 331 333 335 337 339 341 344 346 347 347 346 344 343 344 344 344 343 342 342 342 343 342 340 338 336 334 332
269 268 261 255 251 248 245 244 243 245 251 253 250 250 255 259 260 262 264 264 265 268 270 273 276 277 276 277 277 278 279 280 280 281 285 288 290 292 294 296 300 303 306 310 315 321 325 328 331 333 335 336 339 342 345 347 348 347 346 344 344 345 345 344 344 343 342 343 343 342 340 339 337 335
258 253 247 245 243 240 240 244 248 251 251 249 249 252 256 258 260 262 262 263 265 267 270 273 275 276 276 276 276 277 278 278 277 278 282 286 289 290 292 293 296 298 302 307 312 317 322 325 328 331 333 334 337 340 344 347 348 348 347 345 344 345 345 345 345 344 344 343 343 342 342 341 339 336
Height
5918 5917 5916 5916 5915 5915 5914 5913 5912 5911 5910 5909 5908 5906 5905 5904 5903 5902 5901 5901 5900 5899 5898 5897 5897 5896 5894 5893 5892 5891 5890 5889 5888 5886 5884 5883 5882 5880 5878 5877 5875 5874 5873 5872 5870 5869 5868 5867 5865 5864 5863 5862 5861 5860 5859 5859 5858 5857 5857 5856 5856 5855 5854 5853 5853 5852 5853 5853 5853 5854 5855 5855 5856 5857
5917 5917 5916 5915 5914 5914 5913 5912 5911 5910 5909 5908 5907 5906 5904 5903 5902 5901 5900 5899 5898 5897 5896 5895 5894 5893 5892 5891 5890 5889 5888 5887 5885 5884 5882 5880 5878 5877 5875 5873 5872 5871 5870 5869 5867 5866 5865 5863 5862 5861 5860 5858 5857 5856 5855 5854 5854 5853 5852 5851 5851 5851 5850 5849 5849 5848 5848 5848 5848 5849 5849 5850 5851 5852
5917 5916 5915 5914 5913 5912 5912 5911 5911 5910 5909 5908 5907 5905 5904 5903 5901 5900 5899 5898 5897 5895 5894 5893 5892 5891 5890 5889 5888 5887 5886 5884 5883 5881 5879 5877 5875 5873 5871 5870 5869 5868 5867 5865 5864 5862 5861 5860 5859 5857 5856 5854 5853 5852 5850 5849 5848 5848 5847 5847 5846 5845 5845 5845 5845 5844 5844 5843 5843 5844 5844 5844 5845 5846
5917 5916 5914 5913 5911 5910 5910 5910 5910 5909 5908 5907 5906 5905 5903 5902 5901 5900 5899 5897 5896 5894 5893 5892 5890 5889 5888 5887 5886 5885 5883 5881 5879 5878 5876 5874 5872 5870 5868 5866 5865 5864 5862 5861 5860 5858 5857 5855 5854 5853 5851 5850 5848 5847 5845 5844 5843 5842 5842 5841 5840 5840 5839 5839 5840 5839 5839 5839 5839 5839 5839 5839 5840 5841
5916 5915 5913 5912 5910 5910 5909 5908 5908 5907 5907 5906 5905 5903 5902 5901 5900 5899 5897 5896 5894 5892 5891 5889 5888 5887 5886 5885 5884 5882 5880 5878 5876 5875 5873 5871 5869 5867 5865 5863 5861 5860 5858 5857 5855 5853 5851 5850 5849 5847 5846 5844 5843 5841 5840 5838 5837 5837 5836 5835 5834 5834 5834 5833 5834 5834 5834 5834 5834 5834 5834 5834 5834 5835
5915 5914 5912 5911 5910 5909 5908 5907 5906 5906 5905 5903 5902 5901 5900 5898 5897 5897 5895 5894 5892 5890 5889 5888 5886 5885 5883 5882 5881 5879 5877 5875 5874 5872 5870 5868 5866 5863 5861 5859 5857 5856 5854 5852 5850 5847 5846 5844 5843 5842 5840 5838 5837 5835 5834 5832 5831 5830 5830 5829 5828 5828 5828 5827 5827 5827 5828 5828 5828 5828 5828 5829 5829 5829
5914 5912 5911 5910 5909 5908 5907 5905 5904 5903 5902 5901 5900 5898 5897 5896 5895 5894 5893 5891 5889 5887 5886 5885 5884 5882 5881 5879 5878 5876 5874 5872 5870 5869 5867 5865 5862 5860 5857 5855 5853 5851 5849 5847 5845 5843 5840 5839 5838 5836 5834 5832 5830 5829 5828 5827 5825 5824 5823 5823 5822 5822 5821 5821 5821 5821 5821 5822 5822 5822 5823 5823 5823 5824
5913 5911 5910 5909 5908 5907 5905 5904 5902 5901 5900 5898 5897 5895 5894 5893 5892 5891 5889 5888 5886 5884 5883 5882 5882 5880 5878 5876 5875 5873 5871 5870 5868 5865 5863 5860 5858 5855 5853 5850 5847 5845 5844 5842 5840 5837 5835 5833 5832 5830 5828 5826 5824 5823 5822 5821 5819 5818 5817 5816 5815 5815 5814 5814 5814 5814 5814 5814 5815 5816 5816 5816 5817 5817
5911 5910 5909 5908 5907 5906 5904 5902 5900 5899 5898 5896 5895 5893 5892 5891 5889 5888 5887 5885 5884 5882 5881 5880 5878 5877 5875 5874 5872 5870 5868 5867 5865 5862 5860 5857 5854 5851 5848 5844 5842 5839 5838 5836 5833 5830 5828 5826 5825 5823 5821 5820 5818 5816 5815 5814 5812 5811 5810 5809 5808 5807 5807 5806 5806 5806 5806 5806 5807 5808 5809 5809 5809 5810
5910 5909 5908 5907 5905 5904 5902 5900 5898 5897 5896 5895 5893 5891 5890 5889 5887 5885 5884 5883 5882 5880 5879 5877 5876 5874 5872 5870 5869 5867 5865 5863 5861 5858 5856 5853 5850 5846 5842 5839 5836 5834 5831 5830 5827 5824 5821 5819 5817 5815 5813 5812 5810 5809 5808 5806 5804 5803 5802 5801 5800 5799 5799 5798 5798 5798 5798 5798 5798 5799 5800 5801 5802 5802
5908 5907 5906 5905 5903 5901 5900 5898 5896 5894 5893 5892 5891 5889 5888 5887 5885 5883 5882 5881 5880 5878 5877 5875 5873 5871 5869 5867 5866 5864 5862 5859 5857 5854 5851 5848 5845 5842 5838 5833 5830 5827 5825 5823 5821 5817 5814 5812 5810 5808 5805 5804 5802 5802 5800 5798 5797 5796 5795 5794 5793 5792 5791 5790 5790 5790 5790 5790 5790 5790 5791 5792 5793 5795
5905 5904 5903 5902 5901 5899 5898 5896 5894 5892 5891 5890 5889 5888 5886 5885 5883 5882 5880 5879 5878 5876 5874 5873 5871 5869 5866 5864 5863 5861 5858 5856 5854 5851 5847 5844 5840 5836 5833 5828 5824 5821 5819 5816 5814 5811 5807 5805 5804 5801 5799 5797 5795 5794 5792 5790 5789 5788 5787 5786 5785 5784 5784 5783 5782 5782 5782 5782 5782 5782 5782 5783 5784 5786
5902 5901 5900 5899 5898 5897 5895 5894 5893 5891 5890 5888 5887 5886 5885 5884 5882 5880 5879 5877 5875 5873 5872 5870 5868 5866 5863 5861 5860 5858 5855 5853 5850 5847 5844 5840 5836 5832 5828 5823 5819 5816 5813 5811 5808 5804 5801 5799 5798 5795 5793 5791 5789 5787 5785 5783 5782 5781 5779 5778 5777 5776 5776 5775 5774 5774 5774 5774 5774 5774 5775 5775 5776 5776
5899 5898 5897 5896 5895 5894 5893 5892 5891 5890 5888 5887 5886 5884 5883 5882 5880 5879 5876 5874 5872 5870 5869 5867 5864 5862 5860 5858 5856 5854 5852 5849 5846 5843 5839 5835 5831 5828 5824 5820 5815 5811 5809 5807 5805 5800 5795 5793 5792 5789 5787 5785 5783 5780 5778 5777 5775 5774 5772 5771 5770 5769 5768 5767 5766 5766 5766 5766 5767 5767 5767 5768 5768 5769
5896 5895 5895 5893 5892 5891 5891 5890 5888 5887 5886 5885 5883 5882 5880 5879 5878 5876 5874 5872 5869 5867 5865 5863 5861 5859 5857 5855 5853 5851 5848 5845 5841 5838 5834 5830 5826 5823 5820 5816 5812 5808 5805 5802 5800 5796 5791 5788 5787 5784 5782 5780 5777 5775 5772 5770 5769 5767 5765 5764 5763 5762 5760 5759 5759 5758 5758 5758 5759 5759 5760 5760 5761 5761
5893 5893 5892 5890 5889 5888 5887 5886 5885 5885 5884 5883 5881 5879 5878 5877 5875 5874 5871 5869 5866 5864 5862 5860 5857 5855 5853 5851 5849 5847 5844 5840 5837 5833 5829 5825 5822 5818 5815 5812 5808 5804 5802 5799 5797 5792 5787 5785 5783 5780 5777 5775 5772 5769 5767 5764 5762 5760 5759 5757 5756 5755 5754 5752 5752 5751 5751 5751 5751 5751 5751 5752 5752 5753
5889 5889 5889 5887 5885 5884 5883 5883 5882 5882 5881 5880 5878 5877 5875 5874 5872 5871 5868 5866 5863 5860 5858 5856 5854 5852 5850 5847 5845 5842 5839 5835 5832 5828 5824 5821 5817 5814 5811 5808 5804 5801 5798 5796 5793 5789 5784 5782 5779 5776 5773 5770 5767 5764 5761 5758 5756 5754 5752 5750 5748 5747 5746 5746 5745 5744 5744 5743 5743 5743 5743 5744 5744 5745
5886 5886 5885 5884 5882 5880 5880 5879 5879 5878 5877 5876 5875 5874 5873 5871 5869 5867 5865 5862 5859 5857 5854 5852 5850 5848 5846 5843 5841 5837 5834 5831 5827 5824 5820 5816 5813 5810 5807 5804 5800 5797 5795 5792 5790 5785 5781 5779 5776 5772 5768 5765 5761 5758 5755 5752 5749 5747 5745 5743 5741 5739 5739 5738 5738 5738 5737 5737 5736 5736 5736 5736 5737 5737
5882 5882 5881 5880 5879 5877 5876 5875 5875 5875 5874 5873 5871 5869 5868 5867 5865 5863 5861 5858 5856 5853 5851 5849 5847 5844 5842 5839 5836 5833 5830 5827 5823 5820 5816 5813 5809 5806 5803 5800 5796 5793 5791 5789 5786 5782 5778 5775 5771 5767 5763 5760 5756 5752 5749 5746 5743 5740 5738 5735 5733 5732 5731 5731 5730 5730 5730 5730 5729 5729 5729 5730 5730 5731
5877 5877 5877 5876 5875 5874 5873 5872 5871 5870 5869 5868 5866 5863 5862 5862 5861 5859 5856 5854 5852 5850 5847 5845 5843 5840 5837 5834 5832 5829 5826 5823 5819 5816 5812 5809 5806 5803 5800 5796 5792 5789 5788 5785 5782 5778 5774 5771 5767 5763 5758 5755 5751 5747 5744 5741 5737 5734 5731 5729 5727 5725 5725 5724 5723 5723 5723 5723 5723 5723 5723 5723 5723 5724
5873 5873 5873 5872 5872 5870 5869 5868 5868 5866 5865 5864 5862 5859 5858 5858 5857 5855 5852 5850 5848 5846 5843 5841 5838 5836 5833 5830 5827 5825 5822 5819 5815 5812 5809 5806 5803 5799 5796 5793 5789 5786 5784 5782 5778 5774 5770 5767 5763 5759 5754 5750 5746 5743 5739 5735 5732 5729 5726 5724 5722 5720 5719 5718 5717 5717 5716 5716 5716 5717 5717 5717 5717 5718
5867 5868 5868 5867 5867 5866 5864 5864 5864 5862 5861 5860 5859 5857 5855 5854 5852 5850 5848 5846 5844 5841 5839 5837 5834 5831 5828 5826 5823 5820 5817 5814 5811 5808 5805 5802 5799 5796 5792 5790 5787 5783 5780 5777 5774 5770 5767 5763 5760 5756 5751 5745 5741 5737 5734 5730 5727 5724 5722 5720 5718 5716 5715 5714 5712 5712 5711 5710 5710 5710 5710 5710 5711 5711
5862 5863 5862 5862 5862 5861 5859 5859 5859 5858 5856 5854 5854 5853 5851 5849 5847 5846 5844 5842 5840 5837 5835 5832 5830 5827 5824 5822 5819 5816 5813 5810 5807 5805 5802 5798 5795 5792 5789 5786 5784 5780 5777 5774 5770 5766 5763 5759 5756 5752 5748 5743 5737 5733 5729 5725 5722 5720 5718 5716 5715 5713 5711 5710 5709 5708 5707 5706 5705 5705 5705 5705 5705 5705
5856 5857 5857 5856 5856 5855 5854 5853 5853 5852 5851 5849 5848 5847 5846 5844 5842 5841 5839 5838 5835 5833 5831 5828 5826 5823 5820 5817 5815 5812 5809 5806 5804 5801 5798 5795 5791 5788 5785 5783 5780 5777 5774 5771 5767 5763 5759 5756 5752 5749 5745 5741 5735 5730 5726 5723 5719 5717 5715 5713 5711 5709 5708 5707 5705 5704 5703 5702 5701 5700 5700 5700 5700 5700
5850 5851 5851 5851 5850 5850 5849 5848 5847 5846 5845 5844 5842 5841 5841 5840 5838 5836 5835 5833 5832 5829 5827 5824 5822 5819 5816 5813 5811 5808 5805 5802 5800 5797 5794 5791 5787 5785 5782 5779 5776 5773 5770 5767 5764 5761 5757 5753 5749 5745 5741 5737 5733 5728 5724 5721 5717 5714 5712 5710 5708 5706 5704 5703 5701 5700 5698 5697 5696 5696 5695 5695 5695 5695
5845 5846 5845 5845 5845 5844 5843 5843 5842 5841 5839 5838 5837 5836 5836 5835 5833 5832 5830 5829 5827 5825 5823 5820 5818 5815 5812 5809 5806 5804 5801 5799 5796 5794 5790 5787 5784 5781 5778 5776 5773 5770 5767 5764 5761 5757 5754 5750 5746 5742 5739 5735 5730 5726 5723 5719 5716 5713 5709 5707 5704 5702 5700 5699 5697 5696 5694 5693 5692 5691 5690 5690 5689 5689
5839 5839 5839 5839 5839 5838 5837 5837 5836 5834 5834 5833 5832 5831 5831 5830 5828 5827 5826 5824 5823 5821 5818 5816 5813 5810 5807 5805 5802 5800 5797 5795 5793 5790 5786 5783 5780 5778 5775 5772 5769 5766 5764 5761 5758 5754 5751 5747 5743 5739 5735 5732 5728 5724 5721 5717 5714 5711 5707 5704 5701 5698 5696 5694 5693 5691 5689 5688 5687 5686 5685 5684 5684 5683
5831 5832 5831 5832 5833 5831 5830 5830 5829 5828 5828 5828 5826 5826 5826 5825 5823 5821 5820 5819 5818 5816 5814 5812 5809 5806 5803 5801 5798 5796 5793 5791 5789 5786 5782 5779 5777 5774 5771 5769 5766 5763 5760 5758 5754 5751 5747 5744 5740 5736 5732 5729 5725 5722 5718 5715 5711 5708 5705 5702 5698 5694 5691 5689 5687 5686 5684 5682 5681 5680 5679 5679 5678 5677
5824 5824 5824 5824 5824 5824 5823 5824 5823 5822 5821 5820 5820 5821 5821 5819 5818 5816 5814 5814 5813 5811 5810 5807 5804 5802 5799 5796 5794 5792 5789 5787 5785 5781 5778 5776 5773 5770 5768 5765 5762 5760 5757 5754 5751 5747 5744 5740 5737 5733 5730 5726 5722 5719 5716 5712 5709 5705 5702 5699 5696 5692 5688 5684 5682 5679 5677 5676 5675 5674 5673 5672 5672 5671
5816 5816 5815 5814 5815 5815 5816 5817 5816 5815 5813 5813 5814 5814 5814 5813 5812 5810 5809 5808 5808 5807 5805 5803 5800 5797 5795 5792 5790 5788 5786 5783 5781 5777 5774 5772 5770 5767 5763 5761 5758 5756 5753 5750 5747 5744 5741 5737 5734 5730 5727 5723 5719 5716 5712 5709 5706 5702 5699 5695 5692 5688 5684 5680 5676 5673 5670 5669 5668 5668 5666 5666 5665 5664
5807 5807 5804 5804 5806 5807 5808 5809 5808 5806 5805 5806 5807 5807 5807 5807 5805 5804 5803 5803 5803 5802 5800 5798 5796 5793 5791 5788 5786 5784 5782 5779 5777 5773 5771 5768 5766 5763 5759 5756 5753 5751 5749 5746 5743 5741 5737 5734 5731 5727 5724 5720 5716 5712 5709 5706 5702 5699 5695 5691 5688 5684 5679 5676 5672 5668 5664 5662 5661 5661 5660 5659 5658 5657
5797 5796 5794 5794 5797 5799 5800 5802 5800 5797 5797 5800 5800 5800 5800 5800 5798 5798 5798 5798 5798 5797 5795 5793 5791 5789 5786 5784 5782 5780 5778 5775 5772 5770 5767 5765 5762 5759 5755 5752 5749 5747 5744 5742 5739 5737 5734 5731 5727 5724 5721 5718 5714 5710 5706 5703 5699 5696 5692 5688 5684 5679 5675 5670 5667 5664 5660 5657 5656 5655 5654 5653 5652 5650
5788 5788 5786 5786 5788 5790 5792 5793 5791 5788 5790 5793 5794 5794 5794 5793 5792 5792 5792 5792 5792 5792 5790 5788 5787 5785 5782 5780 5778 5776 5774 5771 5768 5766 5763 5761 5758 5755 5752 5749 5746 5743 5741 5738 5735 5733 5730 5727 5724 5721 5718 5715 5711 5708 5704 5700 5696 5692 5687 5683 5679 5675 5670 5666 5662 5659 5656 5653 5651 5650 5649 5647 5646 5644
5782 5782 5781 5781 5782 5783 5785 5785 5783 5782 5783 5785 5787 5788 5787 5786 5786 5786 5786 5787 5787 5786 5785 5783 5782 5780 5778 5776 5775 5772 5770 5767 5765 5762 5760 5757 5755 5752 5749 5746 5743 5740 5738 5735 5733 5730 5726 5723 5720 5717 5714 5712 5708 5705 5702 5698 5693 5689 5684 5679 5675 5671 5667 5662 5658 5655 5652 5649 5647 5646 5645 5643 5641 5639
5776 5776 5777 5778 5778 5778 5779 5778 5778 5777 5776 5777 5779 5780 5780 5779 5780 5780 5781 5782 5782 5781 5780 5779 5777 5776 5774 5772 5770 5768 5766 5763 5761 5759 5756 5754 5752 5749 5746 5743 5740 5738 5735 5733 5731 5728 5724 5721 5717 5714 5711 5708 5705 5702 5698 5694 5690 5685 5681 5676 5671 5668 5664 5660 5656 5652 5649 5646 5644 5642 5641 5640 5638 5635
5769 5770 5771 5772 5772 5772 5771 5771 5770 5770 5769 5769 5771 5773 5773 5773 5774 5774 5776 5777 5776 5775 5774 5774 5772 5771 5769 5768 5766 5764 5761 5759 5757 5755 5753 5751 5749 5746 5744 5740 5738 5735 5733 5731 5728 5726 5722 5719 5715 5711 5708 5705 5702 5698 5694 5690 5686 5681 5677 5673 5669 5665 5662 5658 5654 5650 5647 5644 5642 5639 5638 5637 5635 5633
5763 5763 5764 5765 5765 5765 5764 5763 5762 5762 5761 5762 5763 5765 5766 5766 5767 5769 5770 5771 5770 5770 5769 5768 5767 5766 5765 5763 5761 5759 5757 5755 5753 5751 5749 5747 5746 5743 5741 5738 5735 5733 5730 5728 5726 5724 5720 5717 5713 5710 5706 5703 5699 5695 5691 5686 5682 5678 5674 5670 5666 5662 5659 5656 5652 5649 5645 5642 5639 5637 5635 5633 5632 5630
5756 5756 5756 5756 5757 5757 5756 5756 5755 5754 5755 5755 5756 5757 5758 5759 5761 5763 5765 5765 5765 5765 5764 5763 5763 5761 5760 5759 5757 5755 5753 5751 5749 5747 5746 5744 5742 5740 5738 5735 5733 5730 5728 5726 5724 5721 5718 5714 5711 5708 5705 5701 5697 5693 5688 5684 5679 5674 5670 5666 5663 5659 5656 5653 5649 5646 5643 5640 5637 5634 5631 5629 5628 5626
5748 5748 5748 5749 5749 5749 5749 5749 5749 5749 5750 5750 5749 5749 5750 5752 5755 5758 5759 5760 5760 5760 5759 5759 5758 5757 5756 5755 5753 5750 5749 5747 5745 5743 5742 5741 5739 5737 5735 5733 5730 5728 5726 5724 5721 5719 5715 5712 5709 5706 5703 5700 5695 5691 5687 5682 5677 5672 5668 5663 5659 5656 5652 5649 5646 5643 5640 5637 5634 5632 5629 5626 5624 5621
5740 5741 5741 5742 5742 5743 5743 5743 5744 5744 5744 5743 5742 5742 5743 5747 5750 5752 5754 5754 5754 5754 5754 5754 5753 5753 5752 5750 5748 5746 5745 5743 5741 5740 5739 5737 5736 5734 5732 5730 5728 5726 5723 5721 5719 5716 5713 5710 5707 5704 5701 5697 5693 5689 5684 5680 5675 5671 5666 5661 5657 5652 5648 5644 5641 5639 5636 5633 5630 5628 5625 5623 5620 5616
5733 5734 5734 5734 5735 5735 5736 5736 5737 5736 5736 5735 5735 5736 5738 5742 5745 5747 5748 5749 5749 5750 5750 5749 5749 5748 5747 5746 5744 5742 5740 5739 5737 5736 5735 5734 5732 5730 5729 5727 5725 5723 5721 5719 5716 5713 5710 5708 5705 5702 5699 5695 5691 5687 5682 5677 5673 5669 5664 5659 5655 5650 5645 5640 5636 5634 5632 5629 5626 5623 5621 5618 5615 5612
5725 5726 5726 5726 5727 5728 5729 5729 5730 5730 5729 5728 5729 5731 5734 5737 5740 5742 5743 5744 5744 5745 5745 5744 5744 5744 5743 5741 5740 5738 5736 5735 5734 5733 5732 5730 5729 5727 5726 5724 5722 5721 5719 5716 5714 5711 5708 5705 5703 5700 5697 5693 5689 5684 5680 5675 5671 5667 5662 5657 5653 5648 5643 5639 5634 5630 5627 5624 5620 5617 5614 5611 5608 5605
5717 5718 5718 5719 5720 5721 5722 5723 5724 5724 5724 5723 5725 5727 5730 5733 5735 5737 5738 5739 5739 5740 5740 5740 5739 5739 5738 5737 5735 5734 5733 5731 5730 5729 5728 5727 5725 5724 5723 5721 5720 5718 5716 5714 5711 5709 5706 5703 5700 5697 5694 5691 5687 5683 5678 5673 5669 5664 5660 5656 5652 5647 5643 5638 5633 5627 5623 5619 5616 5612 5607 5603 5599 5594
5711 5712 5713 5714 5715 5716 5717 5718 5718 5719 5719 5719 5721 5723 5726 5729 5731 5732 5733 5734 5734 5735 5735 5735 5735 5735 5734 5732 5731 5730 5729 5728 5727 5726 5725 5723 5722 5721 5719 5718 5717 5716 5714 5712 5709 5706 5704 5701 5698 5695 5692 5689 5685 5681 5676 5671 5667 5662 5658 5654 5650 5646 5642 5637 5633 5627 5622 5618 5614 5610 5606 5601 5595 5590
5706 5707 5709 5710 5711 5712 5713 5714 5714 5715 5715 5716 5718 5720 5722 5724 5726 5727 5728 5729 5729 5730 5730 5730 5730 5730 5729 5728 5726 5725 5725 5724 5723 5722 5721 5720 5718 5717 5716 5715 5714 5713 5711 5709 5707 5704 5701 5698 5696 5693 5690 5687 5683 5679 5674 5670 5665 5660 5656 5652 5648 5644 5640 5636 5632 5628 5623 5618 5613 5609 5605 5600 5595 5590